TimeCDT,TemperatureF,Dew PointF,Humidity,Sea Level PressureIn,VisibilityMPH,Wind Direction,Wind SpeedMPH,Gust SpeedMPH,PrecipitationIn,Events,Conditions,WindDirDegrees,DateUTC
12:55 AM,55.9,53.1,90,30.18,10.0,NE,5.8,-,N/A,,Clear,50,2013-08-14 05:55:00
1:55 AM,55.0,52.0,89,30.19,10.0,Calm,Calm,-,N/A,,Partly Cloudy,0,2013-08-14 06:55:00
2:55 AM,55.0,52.0,89,30.19,10.0,ENE,3.5,-,N/A,,Partly Cloudy,70,2013-08-14 07:55:00
3:55 AM,54.0,52.0,93,30.19,10.0,ENE,3.5,-,N/A,,Partly Cloudy,70,2013-08-14 08:55:00
4:55 AM,50.0,50.0,100,30.21,5.0,Calm,Calm,-,N/A,,Clear,0,2013-08-14 09:55:00
5:03 AM,50.0,50.0,100,30.20,1.8,Calm,Calm,-,N/A,,Clear,0,2013-08-14 10:03:00
5:17 AM,48.2,48.2,100,30.20,3.0,Calm,Calm,-,N/A,,Clear,0,2013-08-14 10:17:00
5:21 AM,48.2,48.2,100,30.20,1.5,Calm,Calm,-,N/A,,Clear,0,2013-08-14 10:21:00
5:26 AM,48.2,48.2,100,30.20,0.5,Calm,Calm,-,N/A,Fog,Fog,0,2013-08-14 10:26:00
5:33 AM,48.2,48.2,100,30.21,1.0,Calm,Calm,-,N/A,,Clear,0,2013-08-14 10:33:00
5:42 AM,46.4,46.4,100,30.20,3.0,Calm,Calm,-,N/A,,Clear,0,2013-08-14 10:42:00
5:55 AM,48.9,46.9,93,30.21,2.0,Calm,Calm,-,N/A,,Clear,0,2013-08-14 10:55:00
6:03 AM,48.2,48.2,100,30.21,1.2,Calm,Calm,-,N/A,,Clear,0,2013-08-14 11:03:00
6:15 AM,48.2,46.4,93,30.21,0.5,Calm,Calm,-,N/A,Fog,Fog,0,2013-08-14 11:15:00
6:45 AM,48.2,46.4,93,30.21,1.5,Calm,Calm,-,N/A,,Clear,0,2013-08-14 11:45:00
6:50 AM,48.2,48.2,100,30.22,3.0,Calm,Calm,-,N/A,,Clear,0,2013-08-14 11:50:00
6:55 AM,48.9,48.0,97,30.22,5.0,Calm,Calm,-,N/A,,Clear,0,2013-08-14 11:55:00
7:55 AM,60.1,54.0,80,30.23,10.0,Calm,Calm,-,N/A,,Clear,0,2013-08-14 12:55:00
8:55 AM,64.9,53.1,65,30.25,10.0,Variable,3.5,-,N/A,,Clear,0,2013-08-14 13:55:00
9:55 AM,69.1,52.0,54,30.25,10.0,Calm,Calm,-,N/A,,Clear,0,2013-08-14 14:55:00
10:55 AM,72.0,46.9,41,30.24,10.0,ENE,6.9,-,N/A,,Clear,70,2013-08-14 15:55:00
11:55 AM,71.1,46.0,41,30.25,10.0,Calm,Calm,-,N/A,,Scattered Clouds,0,2013-08-14 16:55:00
12:55 PM,75.0,48.0,38,30.23,10.0,NE,5.8,-,N/A,,Clear,50,2013-08-14 17:55:00
1:55 PM,75.9,46.9,36,30.20,10.0,East,6.9,-,N/A,,Scattered Clouds,90,2013-08-14 18:55:00
2:55 PM,75.9,46.9,36,30.19,10.0,East,6.9,-,N/A,,Partly Cloudy,80,2013-08-14 19:55:00
3:55 PM,75.9,46.0,35,30.18,10.0,SSE,4.6,-,N/A,,Clear,150,2013-08-14 20:55:00
4:55 PM,75.9,46.0,35,30.17,10.0,NE,3.5,-,N/A,,Clear,50,2013-08-14 21:55:00
5:55 PM,75.0,46.0,36,30.17,10.0,ENE,4.6,-,N/A,,Clear,70,2013-08-14 22:55:00
6:55 PM,72.0,48.0,43,30.15,10.0,East,3.5,-,N/A,,Clear,100,2013-08-14 23:55:00
7:55 PM,66.0,48.9,54,30.15,10.0,East,3.5,-,N/A,,Clear,90,2013-08-15 00:55:00
8:55 PM,64.0,50.0,60,30.16,10.0,East,3.5,-,N/A,,Clear,100,2013-08-15 01:55:00
9:55 PM,63.0,51.1,65,30.17,10.0,East,3.5,-,N/A,,Clear,100,2013-08-15 02:55:00
10:55 PM,62.1,52.0,70,30.18,10.0,Calm,Calm,-,N/A,,Clear,0,2013-08-15 03:55:00
11:55 PM,57.9,51.1,78,30.18,10.0,Calm,Calm,-,N/A,,Clear,0,2013-08-15 04:55:00